Regional Weather Roundup
Issued by NWS Raleigh/Durham, NC

Home | Current Version | Previous Version | Text Only | Print | Product List | Glossary On
Versions: 1 2 3 4 5 6 7 8 9 10 11 12 13 14 15 16 17 18 19 20 21 22 23 24 25 26 27 28 29 30 31 32 33 34 35 36 37 38 39 40 41 42 43 44 45 46 47 48 49 50
672
ASUS42 KRAH 301910
RWRRAH
NORTH CAROLINA WEATHER ROUNDUP
NATIONAL WEATHER SERVICE RALEIGH NC
300 PM EDT SAT JUL 30 2016

NOTE: "FAIR" INDICATES FEW OR NO CLOUDS BELOW 12,000 FEET WITH NO
SIGNIFICANT WEATHER AND/OR OBSTRUCTIONS TO VISIBILITY.

NCZ001-053-055-056-065-067-302000-
WESTERN NORTH CAROLINA

CITY           SKY/WX    TMP DP  RH WIND       PRES   REMARKS
ASHEVILLE      SUNNY     87  65  47 VRB3      30.05F
JEFFERSON      SUNNY     80  64  56 W10       30.11F
HICKORY        MOSUNNY   89  70  53 VRB3      29.99F
RUTHERFORDTON    N/A     88  69  53 SE5       29.99F
MOUNT AIRY     SUNNY     86  73  65 N6        30.02F
BOONE          MOSUNNY   80  60  49 N9G20     30.12F
$$

NCZ021-022-025-041-071-084-088-302000-
CENTRAL NORTH CAROLINA

CITY           SKY/WX    TMP DP  RH WIND       PRES   REMARKS
CHARLOTTE      MOSUNNY   91  67  44 SW7       29.98F
GREENSBORO     MOSUNNY   92  67  43 VRB3      29.96F HX  95
WINSTON-SALEM  SUNNY     90  67  46 W8        29.98F
RALEIGH-DURHAM PTSUNNY   93  73  52 W12G18    29.93F HX 102
FORT BRAGG     MOSUNNY   97  69  39 SW10      29.92F HX 103
FAYETTEVILLE   MOSUNNY  100  66  32 W20G28    29.92F HX 104
BURLINGTON     SUNNY     91  73  55 S8        29.94F HX  99
LAURINBURG     PTSUNNY   98  69  38 W16G22    29.94F HX 104
$$

NCZ011-015-027-028-043-044-047-080-103-302000-
NORTHEASTERN NORTH CAROLINA

CITY           SKY/WX    TMP DP  RH WIND       PRES   REMARKS
ROCKY MT-WILSO CLOUDY    94  74  52 SW13G21   29.91F HX 104
GREENVILLE     CLOUDY    81  77  89 SE3       29.94F
WASHINGTON     LGT RAIN  76  73  88 E10       29.94R
ELIZABETH CITY TSTM      79  72  79 S8G22     30.00R
MANTEO         NOT AVBL
CAPE HATTERAS  CLOUDY    86  78  77 S8        29.98F HX  98
$$

NCZ078-087-090-091-093-098-101-302000-
SOUTHEASTERN NORTH CAROLINA

CITY           SKY/WX    TMP DP  RH WIND       PRES   REMARKS
LUMBERTON      SUNNY     96  71  44 SW15      29.93F HX 103
GOLDSBORO      MOSUNNY   98  70  39 SW23      29.90F HX 105
KINSTON        SUNNY    100  66  32 SW12G23   29.91F HX 104
KENANSVILLE    NOT AVBL
NEW BERN       CLOUDY    80  71  74 S17G29    29.98R THUNDER
CHERRY POINT   TSTM      79  72  79 W7        29.98R
BEAUFORT       CLOUDY    88  83  85 SW15      29.97S HX 109
JACKSONVILLE   CLOUDY    82  76  81 SE8       29.95S THUNDER
WILMINGTON     MOSUNNY   90  75  61 S9        29.96F HX 100
$$





USA.gov is the U.S. government's official web portal to all federal, state and local government web resources and services.